Location: Artiguedieu
(43.5000°N, 0.5454°E)
Time: 19:27:11
(UTC+00:00)

Vanguard 1 - Pass Details

Date: 04 August 2021
Orbit: 652 x 3831 km, 34.3° (Epoch: 19 September)

Event Time Altitude Azimuth Distance (km) Brightness Sun altitude
Rises 09:33:30 0° 226° (SW) 2,958 12.4 48.7°
Reaches altitude 10° 09:36:08 10° 210° (SSW) 2,061 11.9 49.2°
Maximum altitude 09:39:34 21° 159° (SSE) 1,562 12.0 49.7°
Drops below altitude 10° 09:43:42 10° 110° (ESE) 2,511 13.0 50.4°
Sets 09:47:19 0° 95° (E) 3,832 13.6 50.9°
